Riverbend Golf Club, California, United States
Lat: 36.93N, Lon: 119.76W
Wx Zone: CAZ090
Local Info
Past Weather Observations for Today

NOTE: This archive is for the closest National Weather Service station to Riverbend Golf Club. Information may differ from the station used for current weather conditions.

Click here for Long-term Archive

Time Weather Temperature Dewpoint Humidity Pressure Winds Precip Visibility
22:53
Clear
82°F / 28°C 55°F / 13°C 40% 29.77 in
(1008 mb)
W 6.9 mph
(W 11 kph)
- 9SM
21:53
Clear
82°F / 28°C 55°F / 13°C 40% 29.77 in
(1008 mb)
NW 5.8 mph
(NW 9 kph)
- 9SM
20:53
Clear
86°F / 30°C 55°F / 13°C 35% 29.77 in
(1008 mb)
NW 5.8 mph
(NW 9 kph)
- 9SM
19:53
Partly Cloudy
88°F / 31°C 54°F / 12°C 31% 29.77 in
(1008 mb)
NW 9.2 mph
(NW 15 kph)
- 8SM
18:53
Partly Cloudy
91°F / 33°C 48°F / 9°C 23% 29.74 in
(1007 mb)
NW 11.5 mph
(NW 19 kph)
- 7SM
17:53
Partly Cloudy
95°F / 35°C 48°F / 9°C 20% 29.74 in
(1007 mb)
NW 12.7 mph
(NW 20 kph)
- 7SM
16:53
Partly Cloudy
99°F / 37°C 46°F / 8°C 17% 29.74 in
(1007 mb)
NW 12.7 mph
(NW 20 kph)
- 7SM
15:53
Partly Cloudy
97°F / 36°C 50°F / 10°C 20% 29.74 in
(1007 mb)
NW 9.2 mph
(NW 15 kph)
- 7SM
14:53
Partly Cloudy
97°F / 36°C 48°F / 9°C 19% 29.77 in
(1008 mb)
WNW 6.9 mph
(WNW 11 kph)
- 10SM
13:53
Partly Cloudy
97°F / 36°C 46°F / 8°C 18% 29.8 in
(1009 mb)
NW 6.9 mph
(NW 11 kph)
- 10SM
12:53
Partly Cloudy
95°F / 35°C 48°F / 9°C 20% 29.8 in
(1009 mb)
NW 8.1 mph
(NW 13 kph)
- 10SM
11:53
Partly Cloudy
93°F / 34°C 46°F / 8°C 20% 29.83 in
(1010 mb)
NW 8.1 mph
(NW 13 kph)
- 10SM
10:53
Partly Cloudy
91°F / 33°C 43°F / 6°C 18% 29.83 in
(1010 mb)
NW 3.5 mph
(NW 6 kph)
- 10SM
09:53
Clear
88°F / 31°C 48°F / 9°C 25% 29.86 in
(1011 mb)
WNW 4.6 mph
(WNW 7 kph)
- 10SM
08:53
Clear
82°F / 28°C 54°F / 12°C 37% 29.86 in
(1011 mb)
SE 3.5 mph
(SE 6 kph)
- 10SM
07:53
Clear
79°F / 26°C 54°F / 12°C 42% 29.86 in
(1011 mb)
SE 6.9 mph
(SE 11 kph)
- 10SM
06:53
Partly Cloudy
75°F / 24°C 52°F / 11°C 44% 29.86 in
(1011 mb)
E 4.6 mph
(E 7 kph)
- 10SM
05:53
Partly Cloudy
72°F / 22°C 52°F / 11°C 50% 29.86 in
(1011 mb)
Calm - 10SM
04:53
Partly Cloudy
68°F / 20°C 50°F / 10°C 53% 29.83 in
(1010 mb)
SSE 3.5 mph
(SSE 6 kph)
- 10SM
03:53
Clear
70°F / 21°C 50°F / 10°C 50% 29.83 in
(1010 mb)
Calm - 10SM
02:53
Partly Cloudy
70°F / 21°C 50°F / 10°C 50% 29.83 in
(1010 mb)
NW 5.8 mph
(NW 9 kph)
- 10SM
01:53
Clear
72°F / 22°C 48°F / 9°C 44% 29.83 in
(1010 mb)
NW 4.6 mph
(NW 7 kph)
- 10SM
00:53
Clear
73°F / 23°C 48°F / 9°C 41% 29.83 in
(1010 mb)
NW 9.2 mph
(NW 15 kph)
- 10SM
Time Weather Temperature Dewpoint Humidity Pressure Winds Precip Visibility


Weather for websites

WeatherForYou.com, LLC is not responsible for any damages or problems caused by this service. Current weather conditions are obtained from the closest station including government and personal stations which may have varying degrees of accuracy. Weather forecasts are derived from the NOAA NDFD. Like all things, this site belongs to Jesus Christ... He just trusts us to maintain it. If you have any questions or comments email webmaster@weatherforyou.com

Copyright © 2016, WeatherForYou.com LLC. All rights reserved.